Tracking 31027 objects as of 19-Jul-2025
HD Live streaming from Space Station
objects crossing your sky now

ZY 3

Track ZY 3 now!
10-day predictions
ZY 3 is classified as:


NORAD ID: 38046
Int'l Code: 2012-001A
Perigee: 408.4 km
Apogee: 415.1 km
Inclination: 97.2 °
Period: 92.7 minutes
Semi major axis: 6782 km
RCS: 5.391 m2 (large)
Launch date: January 9, 2012
Source: People's Republic of China (PRC)
Launch site: Taiyaun Space Center, China (TSC)
Your satellite tracking list
COSMOS 1408 DEB
Track 1 satellite(s)




NASA's NSSDC Master Catalog

Two Line Element Set (TLE):
1 38046U 12001A   25199.82760684  .00018003  00000-0  27811-3 0  9996
2 38046  97.1964 264.5920 0004887 131.2516 228.9160 15.54151326752121
Source of the keplerian elements: AFSPC